Overview Statistics Trail Chart Weather Telemetry Raw packets
 

This is the latest recevied weather packets stored in our database for station/object AB2HM. If no packets are shown the sender has not sent any weather packets the latest 10 day(s).

<< 6 7 8 9 10 11 12 >>
Time Temp. Humidity Pressure Rain* Wind** Luminosity Snow
1788253635 23.89° C 91% 1018.2 hPa 0 mm - - -
1788251826 23.89° C 91% 1018.2 hPa 0 mm - - -
1788250021 23.89° C 91% 1018.1 hPa 0 mm - - -
1788248207 23.89° C 90% 1018.1 hPa 0 mm - - -
1788246387 23.89° C 90% 1018.4 hPa 0 mm - - -
1788244561 23.89° C 89% 1018.6 hPa 0 mm - - -
1788242758 23.33° C 89% 1018.7 hPa 0 mm - - -
1788240947 23.89° C 89% 1019.1 hPa 0 mm - - -
1788239137 23.33° C 88% 1019.4 hPa 0 mm - - -
1788237332 23.89° C 88% 1019.6 hPa 0 mm - - -
1788235527 23.33° C 87% 1019.7 hPa 0 mm - - -
1788233719 23.89° C 87% 1019.7 hPa 0 mm - - -
1788231910 23.89° C 86% 1019.6 hPa 0 mm - - -
1788230103 23.89° C 85% 1019.7 hPa 0 mm - - -
1788228297 23.89° C 83% 1019.9 hPa 0 mm - - -
1788226487 24.44° C 81% 1019.8 hPa 0 mm - - -
1788224682 24.44° C 78% 1019.8 hPa 0 mm - - -
1788222870 25° C 76% 1019.5 hPa 0 mm - - -
1788221061 25.56° C 76% 1019.1 hPa 0 mm - - -
1788219257 25.56° C 73% 1019.5 hPa 0 mm - - -
1788217447 26.67° C 70% 1019.6 hPa 0 mm - - -
1788215640 26.67° C 66% 1019.8 hPa 0 mm - - -
1788213833 26.67° C 65% 1020 hPa 0 mm - - -
1788212023 27.78° C 62% 1020.1 hPa 0 mm - - -
1788210217 28.33° C 59% 1020.1 hPa 0 mm - - -

* Rain latest hour (hover to see other rain measurements)
** Current wind speed in m/s (hover to see current wind gust speed)